DELTA 1 DEB, 42565

Orbit data source: Space-Track

DELTA 1 DEB, 42565 is space debris in SSO originally from a launch on Sun, 23 Jul 1972 UTC launched from the Air Force Western Test Range (AFWTR). Debris objects in space refer to the collection of defunct objects orbiting the Earth. Examples of debris include non-operational satellites, rocket bodies, and fragments generated from explosions, collisions, or faulty payload assembly.

Loading next visibility...
Identifier
42565, 1972-058JY
Orbit
SSO
Country
Flag of USUS
Related business
Manufacturer
Unknown
Mission
Spacecraft
Bus & Motor
Unknown
Mass
Unknown
Launch date (UTC)
1972-07-23 (53 years ago)
Launch vehicle
Unknown
Launch site
Air Force Western Test Range (AFWTR)
Object type
Payload
Rocket body
Debris
Shape & HBR
Unknown shape, 0.1 m
Radar Cross Section
Small (<0.1 m²)

Expand to show TLE details & history
Last TLE update: 1 day ago

TLE from 1 day ago
0 DELTA 1 DEB
1 42565U 72058JY  25299.18985284  .00001211  00000-0  28597-3 0  9995
2 42565  97.8469 103.3945 0036149 191.3433 168.6954 14.55454843632428
Epoch: 2025-10-26T04:33Z
TLE epoch observation values (Epoch: 2025-10-26T04:33:23.285Z)
Latitude
-0.00009°
Longitude
0.23788°
Altitude
736.005 km
Speed
7.474 km/s
True Right ascension
06h 53m 34s
True Declination
0° 00' 00"
Sunlit
Object was in daylight at epoch
Visualization orbit readout
Latitude
Unknown
Longitude
Unknown
Altitude
Unknown
Speed
Unknown
Apparent Right ascension
Unknown
Apparent Declination
Unknown
Sunlit
N/A
Visualization observer readout
Local Sidereal Time
02:18:03
Azimuth
Unknown
Elevation
Unknown
Doppler factor
Unknown
Orbital elements
Apogee altitude
730.564 km
Perigee altitude
679.355 km
Semi-major axis
7,083.096 km
Eccentricity
0.00361
Inclination
97.8469°
RAAN
103.3945°
Arg. of periapsis
191.3433°
True anomaly
168.77624°
Mean anomaly
168.6954°
Eccentric anomaly
168.73586°
Mean motion
3.6409 °/min
Orbital period
98.88 mins
BSTAR
0.00028597
Loading maneuver chart data...
Computing Atmospheric mass density...
Loading historical data...
Loading historical data...
Loading historical data...
Loading historical data...
Loading historical data...
Loading historical data...
Loading historical data...

Documentation

Showing up to 5 results
|